Location: Sagn�
(15.2046°N, 12.7898°W)
Time: 13:50:08
(UTC+00:00)

Cosmos 1354 Rocket - Pass Details

Date: 08 May 2021
Orbit: 764 x 784 km, 74.0° (Epoch: 14 June)

Event Time Altitude Azimuth Distance (km) Brightness Sun altitude
Exits shadow 21:18:15 66° 333° (NNW) 830 4.2 -29.0°
Drops below altitude 10° 21:22:51 10° 9° (N) 2,293 6.7 -29.9°
Sets 21:25:14 0° 11° (N) 3,221 7.5 -30.4°
